TimeMDT,TemperatureF,Dew PointF,Humidity,Sea Level PressureIn,VisibilityMPH,Wind Direction,Wind SpeedMPH,Gust SpeedMPH,PrecipitationIn,Events,Conditions,WindDirDegrees,DateUTC
12:55 AM,41.0,16.3,37,29.95,10.0,West,8.1,-,0.00,,Clear,280,2012-10-09 06:55:00
1:55 AM,39.9,14.9,36,29.96,10.0,Calm,Calm,-,N/A,,Clear,0,2012-10-09 07:55:00
2:55 AM,40.5,16.3,38,29.96,10.0,Calm,Calm,-,N/A,,Clear,0,2012-10-09 08:55:00
3:55 AM,36.7,20.7,52,29.96,10.0,West,3.5,-,0.00,,Clear,270,2012-10-09 09:55:00
4:55 AM,35.1,16.2,46,29.96,10.0,West,4.6,-,0.00,,Clear,280,2012-10-09 10:55:00
5:55 AM,35.8,15.6,44,29.98,10.0,West,4.6,-,0.00,,Clear,270,2012-10-09 11:55:00
6:55 AM,34.9,17.6,49,30.00,10.0,Calm,Calm,-,0.00,,Clear,0,2012-10-09 12:55:00
7:55 AM,28.4,15.4,58,30.05,10.0,East,3.5,-,N/A,,Clear,90,2012-10-09 13:55:00
8:55 AM,32.5,16.5,52,30.07,10.0,East,4.6,-,N/A,,Clear,100,2012-10-09 14:55:00
9:55 AM,45.7,17.8,33,30.06,10.0,ESE,4.6,-,N/A,,Clear,110,2012-10-09 15:55:00
10:55 AM,51.8,18.7,27,30.06,10.0,NE,4.6,-,N/A,,Clear,40,2012-10-09 16:55:00
11:55 AM,55.9,17.8,22,30.04,10.0,North,4.6,-,N/A,,Clear,360,2012-10-09 17:55:00
12:55 PM,59.2,18.5,21,30.05,10.0,Calm,Calm,-,N/A,,Clear,0,2012-10-09 18:55:00
1:55 PM,64.4,16.2,16,30.03,10.0,Variable,4.6,-,N/A,,Clear,0,2012-10-09 19:55:00
2:55 PM,67.5,16.9,14,30.00,10.0,North,5.8,-,N/A,,Clear,350,2012-10-09 20:55:00
3:55 PM,69.4,16.9,13,29.98,10.0,Variable,5.8,-,N/A,,Clear,0,2012-10-09 21:55:00
4:55 PM,70.9,20.1,15,29.97,10.0,NW,5.8,-,N/A,,Clear,320,2012-10-09 22:55:00
5:55 PM,70.5,22.6,16,29.96,10.0,NNW,5.8,-,N/A,,Clear,340,2012-10-09 23:55:00
6:55 PM,66.4,24.4,20,29.96,10.0,West,3.5,-,N/A,,Clear,280,2012-10-10 00:55:00
7:55 PM,60.3,23.5,24,29.99,10.0,Calm,Calm,-,N/A,,Clear,0,2012-10-10 01:55:00
8:55 PM,55.2,25.2,31,30.00,10.0,NNW,3.5,-,N/A,,Clear,340,2012-10-10 02:55:00
9:55 PM,52.0,23.7,33,30.00,10.0,Calm,Calm,-,N/A,,Clear,0,2012-10-10 03:55:00
10:55 PM,43.0,21.2,42,30.01,10.0,SSE,4.6,-,0.00,,Clear,160,2012-10-10 04:55:00
11:55 PM,43.9,20.7,40,30.01,10.0,Calm,Calm,-,0.00,,Clear,0,2012-10-10 05:55:00